Starlink 4694

operational
NORAD ID: 53708 Int'l Des: 2022-107 Owner: SPXS Country: US Constellation: starlink
LEOCIRCULAR

About Starlink 4694

Description loading...

Live Position

Loading 3D Globe...

Upcoming Passes

Altitude History

Altitude vs Time

uPlot chart will show altitude changes over time

Two-Line Element Set

1 53708U 22107J 26035.35267468 .00001166 00000-0 91338-4 0 9994
2 53708 53.2190 18.6401 0001401 100.0234 260.0916 15.08833266190030
Epoch: Feb 4, 2026 • Age: 11 hours

Current Status

Altitude 551.9 km
Velocity 7.59 km/s
Sub-Earth Point -36.06°S, 169.42°E
Launch Date Sep 5, 2022
Age 3.4 years
Type internet

Technical Details

Classification Payload
Mass 305.00 kg
Dry Mass 290.00 kg
Total Mass 305.00 kg
Length 0.20 m
Diameter 2.80 m
Span 9.00 m
Shape Box + pan
Manufacturer SPXS
Bus Type Starlink
Phase Status In Orbit
Owner/State SPXS/US

Large Constellations

Loading constellations...